Regional Weather Roundup
Issued by NWS

Home | Current Version | Previous Version | Graphics & Text | Print | Product List | Glossary On
Versions: 1 2 3 4 5 6 7 8 9 10 11 12 13 14 15 16 17 18 19 20 21 22 23 24 25 26 27 28 29 30 31 32 33 34 35 36 37 38 39 40 41 42 43 44 45 46 47 48
000
ASUS45 KPSR 220110
RWRAZ

ARIZONA HOURLY REGIONAL WEATHER ROUNDUP
NATIONAL WEATHER SERVICE PHOENIX AZ
600 PM MST WED JUN 21 2017

NOTE: FAIR INDICATES FEW OR NO CLOUDS BELOW 12,000 FEET WITH NO
SIGNIFICANT WEATHER AND/OR OBSTRUCTIONS TO VISIBILITY.

AZZ001>003-036-220200-
NORTHWEST ARIZONA

CITY           SKY/WX    TMP DP  RH WIND       PRES   REMARKS
BULLHEAD CITY  SUNNY    118  27   4 SW13G22   29.52S HX 108
KINGMAN        SUNNY    106  30   7 SW16      29.81F
$$

AZZ004>008-015-016-018-220200-
NORTH CENTRAL ARIZONA

CITY           SKY/WX    TMP DP  RH WIND       PRES   REMARKS
GRAND CANYON   MOSUNNY   92  24   8 W15G21    30.10F
PRESCOTT       SUNNY     99  24   7 W17       29.97S
FLAGSTAFF      MOSUNNY   87  24  10 W6        30.13F
PAYSON         MOSUNNY  100  28   8 SW13G21   29.99S
PAGE           MOSUNNY  106  25   6 W10G18    29.81F
$$

AZZ009>014-017-220200-
NORTHEAST ARIZONA

CITY           SKY/WX    TMP DP  RH WIND       PRES   REMARKS
WINSLOW        MOSUNNY  101  25   7 NW12      29.90F
SAINT JOHNS    PTSUNNY   95  27   9 SW20      29.97S
WINDOW ROCK    MOSUNNY   92  33  12 NW3       30.10S
SHOW LOW       MOSUNNY   88  32  13 S17       30.09R
$$

AZZ540-542>544-546-548-220200-
GREATER PHOENIX AREA

CITY           SKY/WX    TMP DP  RH WIND       PRES   REMARKS
PHOENIX        MOSUNNY  116  35   6 W17       29.55F HX 108
BUCKEYE        SUNNY    113  39   8 SW10      29.57S HX 106
GLENDALE       MOSUNNY  117  32   5 S14G20    29.57F HX 108
LUKE AFB       SUNNY    116  34   6 SW16      29.54F HX 107
DEER VALLEY    FAIR     114  35   7 SW15      29.58F HX 106
SCOTTSDALE     SUNNY    114  35   7 W12       29.60F HX 106
MESA-FALCON    MOSUNNY  115  39   8 W9        29.59F HX 108
MESA-GATEWAY   MOSUNNY  115  39   8 W12       29.60S HX 108
CHANDLER       SUNNY    115  37   7 SW13      29.57F HX 107
$$

AZZ539-553-220200-
SOUTHWEST MARICOPA COUNTY AND PINAL COUNTY

CITY           SKY/WX    TMP DP  RH WIND       PRES   REMARKS
CASA GRANDE      N/A    N/A N/A N/A MISG        N/A
GILA BEND      SUNNY    115  36   7 SW16      29.56F HX 107
$$

AZZ503-504-507>509-220200-
SOUTHEAST ARIZONA

CITY           SKY/WX    TMP DP  RH WIND       PRES   REMARKS
TUCSON         CLOUDY   104  42  12 MISG      29.79R
DAVIS-MONTHAN  MOSUNNY  101  45  14 E20G28    29.77R
RYAN FIELD     SUNNY    109  39   9 SW21G28   29.72  HX 103
NOGALES        CLOUDY    94  40  15 N13G26    29.88F
SIERRA VISTA   PTSUNNY   92  38  15 W21       29.97F
DOUGLAS        PTSUNNY   95  42  16 S18G30    29.92R
SAFFORD        PTSUNNY  107  38   9 S12       29.75S HX 101
$$

AZZ532-220200-
SOUTHWEST ARIZONA

CITY           SKY/WX    TMP DP  RH WIND       PRES   REMARKS
YUMA           SUNNY    112  55  15 S15       29.54F HX 111
$$

CAZ041-043-047-048-061-525>527-560>570-220200-
SOUTHERN CALIFORNIA

CITY           SKY/WX    TMP DP  RH WIND       PRES   REMARKS
DOWNTOWN L.A.  SUNNY     80  61  52 W3        29.68F
L.A. AIRPORT   SUNNY     70  60  70 W10       29.70F
SAN DIEGO      MOSUNNY   70  62  76 NW7       29.73F
BURBANK        SUNNY     89  56  32 SE10      29.69S
ONTARIO        SUNNY     96  58  27 W12       29.68F
RIVERSIDE      SUNNY     97  49  19 W14G21    29.67F
PALM SPRINGS   SUNNY    117  25   4 NW17G26   29.55F HX 107
EL CENTRO NAS  SUNNY    114  44   9 SE6       29.52F HX 109
IMPERIAL       CLOUDY   114  46  10 E9        29.50F HX 109
BLYTHE         PTSUNNY  119  21   3 W13       29.52F HX 107
NEEDLES        PTSUNNY  119  18   3 SW17G24   29.56F HX 107
$$

NVZ020-UTZ003-220200-
SOUTHERN NEVADA-UTAH

CITY           SKY/WX    TMP DP  RH WIND       PRES   REMARKS
LAS VEGAS      MOSUNNY  111  13   3 SW15G31   29.66F HX 101
SALT LAKE CITY MOSUNNY   96  45  17 N13       29.86S
$$

NMZ009-TXZ055-220200-
NEW MEXICO-WEST TEXAS

CITY           SKY/WX    TMP DP  RH WIND       PRES   REMARKS
ALBUQUERQUE    CLOUDY    99  27   8 CALM      29.92F
EL PASO        PTSUNNY  101  44  14 SE6       29.83F
$$


........................KEY........................
SKY/WX - SKY CONDITION/WEATHER
TMP    - TEMPERATURE IN FAHRENHEIT
DP     - DEW POINT IN FAHRENHEIT
RH     - RELATIVE HUMIDITY IN PERCENT
WIND   - DIRECTION AND SPEED IN MILES PER HOUR (MPH)
VRB    - VARIABLE WIND DIRECTION
PRES   - MEAN SEA LEVEL PRESSURE IN INCHES OF MERCURY
         F - FALLING PRESSURE   R - RISING PRESSURE
         S - STEADY PRESSURE
VSB    - VISIBILITY IN MILES
HX     - HEAT INDEX IN FAHRENHEIT
WCI    - WIND CHILL INDEX IN FAHRENHEIT
TC     - TEMPERATURE IN CELSIUS WHICH IS ALSO KNOWN AS
         TEMPERATURE IN CENTIGRADE
AFB    - AIR FORCE BASE
         LUKE AFB IS LUKE AIR FORCE BASE
         DAVIS-MONTHAN IS DAVIS-MONTHAN AIR FORCE BASE
NAS    - NAVAL AIR STATION
         EL CENTRO NAS IS EL CENTRO NAVAL AIR STATION
N/A    - NOT AVAILABLE





USA.gov is the U.S. government's official web portal to all federal, state and local government web resources and services.